Regional Weather Roundup
Issued by NWS Upton, NY

Current Version | Previous Version | Text Only | Print | Product List | Glossary On
Versions: 1 2 3 4 5 6 7 8 9 10 11 12 13 14 15 16 17 18 19 20 21 22 23 24 25 26 27 28
000
ASUS41 KOKX 240105
RWROKX

REGIONAL WEATHER ROUNDUP
NATIONAL WEATHER SERVICE NEW YORK NY
900 PM EDT WED APR 23 2014

NOTE: "FAIR" INDICATES FEW OR NO CLOUDS BELOW 12,000 FEET WITH NO
SIGNIFICANT WEATHER AND/OR OBSTRUCTIONS TO VISIBILITY.

NYZ071-072-176-178-NJZ106-104-240200-
NEW YORK CITY METRO AREA


CITY           SKY/WX    TMP DP  RH WIND       PRES   REMARKS
CENTRAL PARK   CLOUDY    48  29  47 NW12G24   29.81R
LAGUARDIA APRT MOCLDY    47  29  49 NW26G39   29.77R
KENNEDY INTL   MOCLDY    49  28  44 NW29G36   29.77R
NEWARK/LIBERTY MOCLDY    48  28  46 NW23G41   29.80R
TETERBORO      CLOUDY    48  29  47 NW23G33   29.79R
$$

NYZ177-179-078>081-240200-
LONG ISLAND NEW YORK

CITY           SKY/WX    TMP DP  RH WIND       PRES   REMARKS
FARMINGDALE    CLOUDY    47  30  51 NW23G35   29.75R
ISLIP          MOCLDY    49  33  54 NW17G28   29.71R
SHIRLEY        MOCLDY    49  32  52 NW17G28   29.72R
WESTHAMPTON    CLOUDY    50  30  46 NW15G29   29.70R
MONTAUK POINT    N/A     49  36  61 NW16G25   29.64R
$$

NYZ052-065-067-240200-
HUDSON VALLEY

CITY           SKY/WX    TMP DP  RH WIND       PRES   REMARKS
WHITE PLAINS   MOCLDY    45  30  55 NW13G30   29.75R
NEWBURGH       MOCLDY    45  30  57 NW12G23   29.79R
MONTGOMERY     CLOUDY    44  30  57 NW10      29.80R
POUGHKEEPSIE   CLOUDY    47  30  51 NW14G24   29.76R
ALBANY         CLOUDY    43  33  68 NW14      29.78R
$$

NJZ001-105-106-008-010-013-015-019>022-104-240200-
NEW JERSEY

CITY           SKY/WX    TMP DP  RH WIND       PRES   REMARKS
NEWARK/LIBERTY MOCLDY    48  28  46 NW23G41   29.80R
TETERBORO      CLOUDY    48  29  47 NW23G33   29.79R
CALDWELL       CLOUDY    45  29  53 NW16G30   29.82R
MORRISTOWN     CLOUDY    45  28  53 N21G38    29.83R
SOMERVILLE     CLOUDY    47  29  49 NW22G38   29.82R
LINDEN         CLOUDY    49  32  51 NW21G30   29.82R
SUSSEX         CLOUDY    45  29  53 NW10G23   29.83R
ANDOVER          N/A     42  28  57 VRB6G17   29.83R
TRENTON        CLEAR     48  28  46 NW20G32   29.82R
MILLVILLE      PTCLDY    51  35  54 NW22G31   29.83R
ATLANTIC CITY  CLOUDY    54  32  43 NW23G33   29.78R
WRIGHTSTOWN    PTCLDY    50  32  49 NW20G30   29.79R
TOMS RIVER     MOCLDY    52  32  46 NW15G22   29.79R
BELMAR         CLOUDY    50  28  43 NW26G37   29.78R
$$

PAZ047>061-062-071-240200-
EASTERN PENNSYLVANIA

CITY           SKY/WX    TMP DP  RH WIND       PRES   REMARKS
PHILADELPHIA   MOCLDY    54  30  40 NW25G31   29.84R
ALLENTOWN      MOCLDY    46  25  43 NW24G39   29.88R
SCRANTON       CLOUDY    41  27  57 NW15G23   29.89R
$$

CTZ002-004>006-009-010-012-RIZ004-006-007-MAZ004-011-015-240200-
SOUTHERN NEW ENGLAND
 IN CT

CITY           SKY/WX    TMP DP  RH WIND       PRES   REMARKS
BRADLEY INTL   MOCLDY    46  33  60 NW21G29   29.67R
HARTFORD       CLOUDY    47  32  56 NW15G23   29.69R
DANBURY        CLOUDY    45  29  53 NW14G23   29.74R
WTRBRY/OXFORD  MOCLDY    45  27  49 N17G30    29.73R
BRIDGEPORT     FAIR      49  31  49 NW12G24   29.71R
MERIDEN        CLOUDY    47  31  53 NW24G37   29.70R
NEW HAVEN      MOCLDY    49  31  49 NW14G26   29.70R
CHESTER        MOCLDY    46  32  57 NW15G30   29.66R
GROTON         CLOUDY    50  34  54 NW21G31   29.62R
WILLIMANTIC    CLOUDY    50  29  44 NW10G26   29.63R

 IN RI

CITY           SKY/WX    TMP DP  RH WIND       PRES   REMARKS
PROVIDENCE     CLOUDY    51  31  46 NW17G23   29.58R
BLOCK ISLAND   CLOUDY    52  32  46 NW18G25   29.60R
WESTERLY       CLOUDY    51  31  46 NW21G31   29.61R

 IN MA

CITY           SKY/WX    TMP DP  RH WIND       PRES   REMARKS
BOSTON         CLOUDY    50  32  50 NW17G29   29.56R
WORCESTER      CLOUDY    45  30  55 NW20G29   29.60R
WESTFIELD      CLOUDY    46  34  62 NW18G28   29.67R
PROVINCETOWN   CLOUDY    45  37  76 MISG      29.52R
NANTUCKET      LGT RAIN  48  38  68 NW21      29.51R
$$

ANZ330-335-338-340-345-350-353-355-240200-
COASTAL MARINE OBSERVATIONS


STATION/POSITION TIME  SKY/WX   TEMP    WIND        PRES    VSBY  WAVE
                                AIR SEA DIR/SP/G                  HT/PER
                 (UTC)          (F)     (DEG/KT/KT) (MB)    (MI)  (FT/S)
NY HARB ENTRANCE 0100            47 45  VRB 21/ 29  1007.4
4S FIRE IS       0000               45                N/A           4/ 5
23SW MTP         0100            47 43  310/ 23/ 27 1003.1          5/ 4
HUDSON CANYON    0000            49 44  320/ 23/ 29 1003.2          4/ 6
EXECUTION ROCKS  0100            47 45  300/ 23/ 31   N/A
WESTERN LI SOUND 0100            47     310/ 19/ 27   N/A           2/ 3
CENTRAL LI SOUND 0100            48 43  310/ 23/ 29   N/A           4/ 4
EASTERN LI SOUND NOT AVBL
ROBBINS REEF     0100            47     320/ 32/ 40   N/A
$$


>>>>>>>>>>>>>>>>>>>>>>>>>>>> KEY <<<<<<<<<<<<<<<<<<<<<<<<<<<
>                                                          <
>     SKY/WX - SKY CONDITION/PRESENT WEATHER               <
>     TMP    - TEMPERATURE IN FAHRENHEIT                   <
>     DP     - DEWPOINT IN FAHRENHEIT                      <
>     RH     - RELATIVE HUMIDITY IN PERCENT                <
>     WIND   - DIRECTION AND SPEED IN MPH                  <
>     PRES   - MEAN SEA LEVEL PRESSURE IN INCHES OF HG     <
>     WCI    - WIND CHILL INDEX                            <
>     VSB    - VISIBILITY IN MILES                         <
>     HX     - HEAT INDEX                                  <
>     TC     - TEMPERATURE IN CELSIUS                      <
>     VRB    - VARIABLE WIND DIRECTION                     <
>                                                          <
>>>>>>>>>>>>>>>>>>>>>>>>>>>> KEY <<<<<<<<<<<<<<<<<<<<<<<<<<<





USA.gov is the U.S. government's official web portal to all federal, state and local government web resources and services.